| time (UTC) | temp F | wind direction | speed knots | gust knots | rain 1hr in | rain 24hr in | rain mn in | humidity % | barometer mb |
| 20260906214503 | 91 | 145 | 5.2 | 11.3 | 0.00 | 0.00 | 0.00 | 29 | 985.4 |
| 20260906213604 | 91 | 146 | 5.2 | 11.3 | 0.00 | 0.00 | 0.00 | 29 | 985.5 |
| 20260906212703 | 91 | 137 | 7.0 | 13.9 | 0.00 | 0.00 | 0.00 | 31 | 985.6 |
| 20260906212018 | 91 | 126 | 7.0 | 13.9 | 0.00 | 0.00 | 0.00 | 30 | 985.7 |
| 20260906210903 | 91 | 117 | 4.3 | 10.4 | 0.00 | 0.00 | 0.00 | 31 | 985.8 |
| 20260906210003 | 90 | 133 | 7.0 | 13.9 | 0.00 | 0.00 | 0.00 | 31 | 985.9 |
| 20260906205403 | 90 | 131 | 6.1 | 15.6 | 0.00 | 0.00 | 0.00 | 32 | 986.0 |
| 20260906204503 | 90 | 131 | 6.1 | 13.0 | 0.00 | 0.00 | 0.00 | 30 | 986.2 |
| 20260906203603 | 89 | 136 | 7.8 | 13.0 | 0.00 | 0.00 | 0.00 | 32 | 986.3 |
| 20260906202704 | 89 | 142 | 6.1 | 13.9 | 0.00 | 0.00 | 0.00 | 31 | 986.3 |
| 20260906201803 | 89 | 139 | 7.0 | 12.2 | 0.00 | 0.00 | 0.00 | 33 | 986.5 |
| 20260906200903 | 89 | 144 | 6.1 | 11.3 | 0.00 | 0.00 | 0.00 | 31 | 986.6 |
| 20260906200003 | 89 | 160 | 5.2 | 11.3 | 0.00 | 0.00 | 0.00 | 31 | 986.8 |
| 20260906195618 | 89 | 162 | 5.2 | 11.3 | 0.00 | 0.00 | 0.00 | 32 | 986.8 |
| 20260906194503 | 89 | 151 | 4.3 | 8.7 | 0.00 | 0.00 | 0.00 | 33 | 987.0 |
| 20260906193603 | 88 | 153 | 4.3 | 12.2 | 0.00 | 0.00 | 0.00 | 32 | 987.1 |
| 20260906192918 | 88 | 159 | 4.3 | 9.6 | 0.00 | 0.00 | 0.00 | 32 | 987.1 |
| 20260906191804 | 88 | 160 | 4.3 | 8.7 | 0.00 | 0.00 | 0.00 | 34 | 987.3 |
| 20260906190903 | 87 | 159 | 5.2 | 10.4 | 0.00 | 0.00 | 0.00 | 31 | 987.6 |
| 20260906190003 | 87 | 158 | 3.5 | 9.6 | 0.00 | 0.00 | 0.00 | 34 | 987.8 |
| 20260906185403 | 87 | 152 | 5.2 | 9.6 | 0.00 | 0.00 | 0.00 | 33 | 987.9 |
| 20260906184503 | 86 | 151 | 5.2 | 10.4 | 0.00 | 0.00 | 0.00 | 33 | 988.0 |
| 20260906183603 | 86 | 153 | 5.2 | 10.4 | 0.00 | 0.00 | 0.00 | 34 | 988.2 |
| 20260906182703 | 86 | 155 | 5.2 | 10.4 | 0.00 | 0.00 | 0.00 | 35 | 988.4 |
| 20260906181803 | 86 | 150 | 5.2 | 10.4 | 0.00 | 0.00 | 0.00 | 35 | 988.6 |
| 20260906180904 | 85 | 161 | 3.5 | 8.7 | 0.00 | 0.00 | 0.00 | 38 | 988.7 |
| 20260906180003 | 85 | 172 | 5.2 | 9.6 | 0.00 | 0.00 | 0.00 | 39 | 989.1 |
| 20260906175403 | 85 | 155 | 3.5 | 7.8 | 0.00 | 0.00 | 0.00 | 38 | 989.2 |
| 20260906174503 | 85 | 150 | 4.3 | 7.8 | 0.00 | 0.00 | 0.00 | 39 | 989.4 |
| 20260906173603 | 84 | 130 | 3.5 | 7.8 | 0.00 | 0.00 | 0.00 | 37 | 989.6 |
| 20260906172703 | 84 | 148 | 3.5 | 7.8 | 0.00 | 0.00 | 0.00 | 38 | 989.9 |
| 20260906171803 | 83 | 178 | 3.5 | 7.8 | 0.00 | 0.00 | 0.00 | 37 | 990.0 |
| 20260906170903 | 83 | 151 | 4.3 | 7.8 | 0.00 | 0.00 | 0.00 | 38 | 990.1 |
| 20260906170004 | 83 | 144 | 5.2 | 9.6 | 0.00 | 0.00 | 0.00 | 37 | 990.2 |
| 20260906165403 | 84 | 143 | 5.2 | 9.6 | 0.00 | 0.00 | 0.00 | 38 | 990.2 |
| 20260906164503 | 84 | 137 | 5.2 | 9.6 | 0.00 | 0.00 | 0.00 | 39 | 990.2 |
| 20260906163603 | 84 | 119 | 4.3 | 8.7 | 0.00 | 0.00 | 0.00 | 38 | 990.2 |
| 20260906162703 | 83 | 124 | 4.3 | 7.8 | 0.00 | 0.00 | 0.00 | 38 | 990.2 |
| 20260906161803 | 83 | 108 | 4.3 | 8.7 | 0.00 | 0.00 | 0.00 | 36 | 990.3 |
| 20260906160903 | 83 | 101 | 3.5 | 7.8 | 0.00 | 0.00 | 0.00 | 38 | 990.2 |
| 20260906160216 | 83 | 147 | 3.5 | 6.1 | 0.00 | 0.00 | 0.00 | 37 | 990.3 |
| 20260906155404 | 82 | 143 | 2.6 | 6.1 | 0.00 | 0.00 | 0.00 | 37 | 990.2 |
| 20260906154503 | 82 | 141 | 2.6 | 6.1 | 0.00 | 0.00 | 0.00 | 36 | 990.3 |
| 20260906153817 | 82 | 129 | 1.7 | 4.3 | 0.00 | 0.00 | 0.00 | 37 | 990.2 |
| 20260906152703 | 80 | 320 | 0.9 | 3.5 | 0.00 | 0.00 | 0.00 | 37 | 990.1 |
| 20260906151803 | 80 | 359 | 0.0 | 1.7 | 0.00 | 0.00 | 0.00 | 37 | 990.1 |
| 20260906151117 | 80 | 330 | 0.0 | 1.7 | 0.00 | 0.00 | 0.00 | 40 | 990.2 |
| 20260906150003 | 78 | 311 | 0.9 | 1.7 | 0.00 | 0.00 | 0.00 | 41 | 990.4 |
| 20260906145403 | 77 | 311 | 0.9 | 2.6 | 0.00 | 0.00 | 0.00 | 43 | 990.3 |
| 20260906144717 | 77 | 310 | 0.9 | 3.5 | 0.00 | 0.00 | 0.00 | 42 | 990.5 |
| 20260906143603 | 75 | 304 | 0.9 | 3.5 | 0.00 | 0.00 | 0.00 | 47 | 990.4 |
| 20260906142703 | 74 | 325 | 2.6 | 5.2 | 0.00 | 0.00 | 0.00 | 47 | 990.5 |
| 20260906141803 | 73 | 327 | 3.5 | 7.8 | 0.00 | 0.00 | 0.00 | 46 | 990.5 |
| 20260906140903 | 72 | 326 | 3.5 | 8.7 | 0.00 | 0.00 | 0.00 | 47 | 990.5 |
| 20260906140003 | 72 | 327 | 3.5 | 7.0 | 0.00 | 0.00 | 0.00 | 48 | 990.6 |
| 20260906135403 | 71 | 329 | 4.3 | 10.4 | 0.00 | 0.00 | 0.00 | 48 | 990.5 |
| 20260906134503 | 70 | 329 | 5.2 | 10.4 | 0.00 | 0.00 | 0.00 | 47 | 990.3 |
| 20260906133604 | 70 | 326 | 5.2 | 10.4 | 0.00 | 0.00 | 0.00 | 49 | 990.3 |
| 20260906132703 | 69 | 314 | 7.8 | 13.0 | 0.00 | 0.00 | 0.00 | 49 | 990.1 |
| 20260906131803 | 68 | 315 | 8.7 | 13.9 | 0.00 | 0.00 | 0.00 | 51 | 990.0 |
| 20260906130903 | 66 | 315 | 6.1 | 12.2 | 0.00 | 0.00 | 0.00 | 54 | 989.9 |
| 20260906130003 | 65 | 308 | 5.2 | 8.7 | 0.00 | 0.00 | 0.00 | 57 | 989.9 |
| 20260906125403 | 64 | 310 | 3.5 | 7.8 | 0.00 | 0.00 | 0.00 | 58 | 989.9 |
| 20260906124718 | 65 | 311 | 3.5 | 8.7 | 0.00 | 0.00 | 0.00 | 57 | 989.9 |
| 20260906123604 | 65 | 316 | 5.2 | 9.6 | 0.00 | 0.00 | 0.00 | 56 | 989.7 |
| 20260906122704 | 65 | 321 | 7.0 | 9.6 | 0.00 | 0.00 | 0.00 | 55 | 989.7 |
| 20260906122016 | 65 | 321 | 6.1 | 10.4 | 0.00 | 0.00 | 0.00 | 56 | 989.6 |
| 20260906120903 | 64 | 316 | 5.2 | 10.4 | 0.00 | 0.00 | 0.00 | 59 | 989.7 |
| 20260906120003 | 62 | 314 | 4.3 | 13.0 | 0.00 | 0.00 | 0.00 | 63 | 989.6 |
| 20260906115616 | 61 | 314 | 2.6 | 10.4 | 0.00 | 0.00 | 0.00 | 66 | 989.6 |
| 20260906114718 | 60 | 318 | 1.7 | 5.2 | 0.00 | 0.00 | 0.00 | 68 | 989.6 |
| 20260906113603 | 59 | 340 | 1.7 | 5.2 | 0.00 | 0.00 | 0.00 | 70 | 989.6 |
| 20260906112707 | 59 | 131 | 0.9 | 3.5 | 0.00 | 0.00 | 0.00 | 71 | 989.5 |
| 20260906112018 | 59 | 123 | 1.7 | 3.5 | 0.00 | 0.00 | 0.00 | 71 | 989.7 |
| 20260906110903 | 60 | 123 | 0.9 | 1.7 | 0.00 | 0.00 | 0.00 | 70 | 989.6 |
| 20260906110003 | 61 | 121 | 0.0 | 1.7 | 0.00 | 0.00 | 0.00 | 70 | 989.7 |
| 20260906105616 | 61 | 121 | 0.0 | 1.7 | 0.00 | 0.00 | 0.00 | 69 | 989.7 |
| 20260906104503 | 61 | 121 | 0.0 | 0.9 | 0.00 | 0.00 | 0.00 | 68 | 989.7 |
| 20260906103603 | 62 | 121 | 0.9 | 1.7 | 0.00 | 0.00 | 0.00 | 66 | 989.7 |
| 20260906102703 | 62 | 0 | 0.0 | 0.0 | 0.00 | 0.00 | 0.00 | 65 | 989.8 |
| 20260906102018 | 63 | 0 | 0.0 | 0.0 | 0.00 | 0.00 | 0.00 | 64 | 989.8 |
| 20260906100904 | 64 | 121 | 0.0 | 1.7 | 0.00 | 0.00 | 0.00 | 61 | 989.8 |
| 20260906100003 | 64 | 121 | 0.0 | 1.7 | 0.00 | 0.00 | 0.00 | 60 | 989.8 |
| 20260906095403 | 65 | 121 | 0.0 | 1.7 | 0.00 | 0.00 | 0.00 | 58 | 989.7 |
| 20260906094503 | 64 | 192 | 0.0 | 0.9 | 0.00 | 0.00 | 0.00 | 60 | 989.6 |
| 20260906093816 | 63 | 87 | 0.0 | 1.7 | 0.00 | 0.00 | 0.00 | 62 | 989.6 |
| 20260906092918 | 63 | 95 | 0.0 | 0.9 | 0.00 | 0.00 | 0.00 | 61 | 989.6 |
| 20260906092017 | 63 | 0 | 0.0 | 0.0 | 0.00 | 0.00 | 0.00 | 61 | 989.5 |
| 20260906090903 | 61 | 0 | 0.0 | 0.0 | 0.00 | 0.00 | 0.00 | 66 | 989.2 |
| 20260906090004 | 61 | 0 | 0.0 | 0.0 | 0.00 | 0.00 | 0.00 | 68 | 989.1 |
| 20260906085403 | 60 | 95 | 0.0 | 0.9 | 0.00 | 0.00 | 0.00 | 69 | 989.1 |
| 20260906084503 | 61 | 0 | 0.0 | 0.0 | 0.00 | 0.00 | 0.00 | 70 | 989.0 |
| 20260906083603 | 60 | 0 | 0.0 | 0.0 | 0.00 | 0.00 | 0.00 | 70 | 989.2 |
| 20260906082703 | 60 | 0 | 0.0 | 0.0 | 0.00 | 0.00 | 0.00 | 70 | 989.0 |
| 20260906081803 | 61 | 0 | 0.0 | 0.0 | 0.00 | 0.00 | 0.00 | 69 | 989.0 |
| 20260906080903 | 61 | 314 | 0.9 | 2.6 | 0.00 | 0.00 | 0.00 | 68 | 989.0 |
| 20260906080006 | 64 | 316 | 2.6 | 3.5 | 0.00 | 0.00 | 0.00 | 63 | 988.8 |
| 20260906075404 | 63 | 317 | 0.9 | 3.5 | 0.00 | 0.00 | 0.00 | 62 | 988.9 |
| 20260906074503 | 61 | 0 | 0.0 | 0.0 | 0.00 | 0.00 | 0.00 | 69 | 988.8 |
| 20260906073603 | 61 | 0 | 0.0 | 0.0 | 0.00 | 0.00 | 0.00 | 69 | 988.8 |
| 20260906072917 | 60 | 0 | 0.0 | 0.0 | 0.00 | 0.00 | 0.00 | 70 | 989.1 |
| 20260906071803 | 61 | 96 | 0.0 | 0.9 | 0.00 | 0.00 | 0.00 | 70 | 988.8 |
| 20260906070903 | 62 | 96 | 0.0 | 0.9 | 0.00 | 0.00 | 0.00 | 67 | 988.8 |
| 20260906070003 | 63 | 0 | 0.0 | 0.0 | 0.00 | 0.00 | 0.00 | 66 | 988.8 |
| 20260906065403 | 63 | 0 | 0.0 | 0.0 | 0.00 | 0.00 | 0.00 | 66 | 989.0 |
| 20260906064504 | 63 | 0 | 0.0 | 0.0 | 0.00 | 0.00 | 0.00 | 67 | 988.7 |
| 20260906063603 | 63 | 0 | 0.0 | 0.0 | 0.00 | 0.00 | 0.00 | 65 | 988.7 |
| 20260906062703 | 64 | 0 | 0.0 | 0.0 | 0.00 | 0.00 | 0.00 | 65 | 988.8 |
| 20260906061803 | 64 | 95 | 0.0 | 0.9 | 0.00 | 0.00 | 0.00 | 65 | 988.6 |
| 20260906060903 | 64 | 0 | 0.0 | 0.0 | 0.00 | 0.00 | 0.00 | 64 | 988.6 |
| 20260906060006 | 68 | 3 | 0.9 | 2.6 | 0.00 | 0.00 | 0.00 | 56 | 988.7 |
| 20260906055403 | 68 | 22 | 0.9 | 2.6 | 0.00 | 0.00 | 0.00 | 56 | 988.5 |
| 20260906054503 | 69 | 36 | 0.9 | 1.7 | 0.00 | 0.00 | 0.00 | 54 | 988.6 |
| 20260906053604 | 69 | 36 | 0.9 | 1.7 | 0.00 | 0.00 | 0.00 | 53 | 988.6 |
| 20260906052703 | 70 | 36 | 0.0 | 1.7 | 0.00 | 0.00 | 0.00 | 51 | 988.7 |
| 20260906052018 | 70 | 36 | 0.0 | 1.7 | 0.00 | 0.00 | 0.00 | 52 | 988.6 |
| 20260906051117 | 70 | 10 | 1.7 | 3.5 | 0.00 | 0.00 | 0.00 | 50 | 988.5 |
| 20260906050003 | 70 | 4 | 0.9 | 2.6 | 0.00 | 0.00 | 0.00 | 54 | 988.7 |
| 20260906045403 | 70 | 352 | 0.9 | 2.6 | 0.00 | 0.00 | 0.00 | 54 | 988.6 |
| 20260906044503 | 70 | 290 | 0.9 | 2.6 | 0.00 | 0.00 | 0.00 | 52 | 988.5 |
| 20260906043603 | 70 | 289 | 0.9 | 2.6 | 0.00 | 0.00 | 0.00 | 51 | 988.4 |
| 20260906042918 | 71 | 289 | 0.9 | 2.6 | 0.00 | 0.00 | 0.00 | 51 | 988.3 |
| 20260906041803 | 72 | 289 | 0.9 | 2.6 | 0.00 | 0.00 | 0.00 | 51 | 988.2 |
| 20260906040903 | 73 | 288 | 0.9 | 2.6 | 0.00 | 0.00 | 0.00 | 51 | 988.0 |
| 20260906040218 | 73 | 288 | 0.9 | 2.6 | 0.00 | 0.00 | 0.00 | 50 | 988.1 |
| 20260906035403 | 74 | 288 | 0.0 | 2.6 | 0.00 | 0.00 | 0.00 | 48 | 988.0 |
| 20260906034503 | 75 | 316 | 0.9 | 3.5 | 0.00 | 0.00 | 0.00 | 47 | 987.9 |
| 20260906033603 | 75 | 22 | 1.7 | 4.3 | 0.00 | 0.00 | 0.00 | 43 | 987.7 |
| 20260906032703 | 74 | 17 | 1.7 | 6.1 | 0.00 | 0.00 | 0.00 | 44 | 987.7 |
| 20260906031804 | 74 | 20 | 2.6 | 6.1 | 0.00 | 0.00 | 0.00 | 45 | 987.7 |
| 20260906030903 | 74 | 329 | 1.7 | 2.6 | 0.00 | 0.00 | 0.00 | 47 | 987.7 |
| 20260906030003 | 74 | 315 | 0.9 | 1.7 | 0.00 | 0.00 | 0.00 | 48 | 987.6 |
| 20260906025403 | 74 | 315 | 0.9 | 1.7 | 0.00 | 0.00 | 0.00 | 47 | 987.5 |
| 20260906024503 | 75 | 315 | 0.0 | 1.7 | 0.00 | 0.00 | 0.00 | 47 | 987.4 |
| 20260906023603 | 76 | 292 | 0.9 | 2.6 | 0.00 | 0.00 | 0.00 | 45 | 987.3 |
| 20260906022703 | 77 | 250 | 0.0 | 0.9 | 0.00 | 0.00 | 0.00 | 45 | 987.1 |
| 20260906021803 | 78 | 250 | 0.0 | 1.7 | 0.00 | 0.00 | 0.00 | 42 | 987.0 |
| 20260906020904 | 78 | 250 | 0.0 | 2.6 | 0.00 | 0.00 | 0.00 | 40 | 986.8 |
| 20260906020003 | 80 | 60 | 1.7 | 4.3 | 0.00 | 0.00 | 0.00 | 39 | 986.6 |
| 20260906015403 | 81 | 64 | 0.9 | 3.5 | 0.00 | 0.00 | 0.00 | 37 | 986.5 |
| 20260906014503 | 82 | 63 | 1.7 | 3.5 | 0.00 | 0.00 | 0.00 | 33 | 986.3 |
| 20260906013603 | 83 | 63 | 3.5 | 6.1 | 0.00 | 0.00 | 0.00 | 32 | 986.3 |
| 20260906012703 | 83 | 62 | 4.3 | 7.8 | 0.00 | 0.00 | 0.00 | 32 | 986.3 |
| 20260906011803 | 84 | 67 | 4.3 | 7.8 | 0.00 | 0.00 | 0.00 | 31 | 986.3 |
| 20260906010903 | 84 | 64 | 4.3 | 7.8 | 0.00 | 0.00 | 0.00 | 31 | 986.2 |
| 20260906010004 | 84 | 64 | 4.3 | 8.7 | 0.00 | 0.00 | 0.00 | 30 | 986.4 |
| 20260906005403 | 84 | 55 | 6.1 | 11.3 | 0.00 | 0.00 | 0.00 | 31 | 986.5 |
| 20260906004503 | 85 | 56 | 6.1 | 11.3 | 0.00 | 0.00 | 0.00 | 32 | 986.3 |
| 20260906003603 | 86 | 65 | 6.1 | 13.0 | 0.00 | 0.00 | 0.00 | 30 | 986.2 |
| 20260906002703 | 86 | 63 | 6.1 | 11.3 | 0.00 | 0.00 | 0.00 | 30 | 986.0 |
| 20260906002018 | 86 | 60 | 7.0 | 11.3 | 0.00 | 0.00 | 0.00 | 30 | 985.9 |
| 20260906000903 | 87 | 70 | 6.1 | 12.2 | 0.00 | 0.00 | 0.00 | 30 | 985.9 |
| 20260906000003 | 87 | 65 | 7.8 | 15.6 | 0.00 | 0.00 | 0.00 | 30 | 985.8 |
| 20260905235404 | 88 | 61 | 7.0 | 15.6 | 0.00 | 0.00 | 0.00 | 30 | 985.7 |
| 20260905234503 | 88 | 63 | 8.7 | 15.6 | 0.00 | 0.00 | 0.00 | 31 | 985.8 |
| 20260905233817 | 88 | 64 | 6.1 | 14.8 | 0.00 | 0.00 | 0.00 | 31 | 985.7 |
| 20260905232703 | 89 | 73 | 8.7 | 15.6 | 0.00 | 0.00 | 0.00 | 28 | 985.8 |
| 20260905232018 | 90 | 94 | 7.8 | 15.6 | 0.00 | 0.00 | 0.00 | 28 | 985.7 |
| 20260905231117 | 90 | 78 | 6.1 | 11.3 | 0.00 | 0.00 | 0.00 | 27 | 985.6 |
| 20260905230218 | 89 | 57 | 7.8 | 14.8 | 0.00 | 0.00 | 0.00 | 27 | 985.6 |
| 20260905225403 | 90 | 63 | 8.7 | 19.1 | 0.00 | 0.00 | 0.00 | 26 | 985.5 |
| 20260905224504 | 91 | 128 | 3.5 | 8.7 | 0.00 | 0.00 | 0.00 | 23 | 985.5 |
| 20260905223603 | 90 | 131 | 6.1 | 13.0 | 0.00 | 0.00 | 0.00 | 23 | 985.5 |
| 20260905222703 | 90 | 152 | 6.1 | 14.8 | 0.00 | 0.00 | 0.00 | 24 | 985.4 |
| 20260905221803 | 90 | 138 | 6.1 | 10.4 | 0.00 | 0.00 | 0.00 | 26 | 985.5 |
| 20260905220903 | 91 | 138 | 5.2 | 10.4 | 0.00 | 0.00 | 0.00 | 26 | 985.6 |
| 20260905220218 | 91 | 141 | 4.3 | 7.0 | 0.00 | 0.00 | 0.00 | 25 | 985.6 |
| 20260905215403 | 91 | 143 | 4.3 | 7.8 | 0.00 | 0.00 | 0.00 | 22 | 985.6 |